Regional Weather Roundup
Issued by NWS Upton, NY

Home | Current Version | Previous Version | Text Only | Print | Product List | Glossary On
Versions: 1 2 3 4 5 6 7 8 9 10 11 12 13 14 15 16 17 18 19 20 21 22 23 24 25 26 27 28 29 30 31 32 33 34 35 36 37 38 39 40 41 42 43 44 45 46 47 48 49
000
ASUS41 KOKX 100305
RWROKX
REGIONAL WEATHER ROUNDUP
NATIONAL WEATHER SERVICE NEW YORK NY
1100 PM EDT WED JUL 09 2014

NOTE: "FAIR" INDICATES FEW OR NO CLOUDS BELOW 12,000 FEET WITH NO
SIGNIFICANT WEATHER AND/OR OBSTRUCTIONS TO VISIBILITY.

NYZ071-072-176-178-NJZ106-104-100400-
NEW YORK CITY METRO AREA


CITY           SKY/WX    TMP DP  RH WIND       PRES   REMARKS
CENTRAL PARK   MOCLDY    73  65  75 N6        29.97R
LAGUARDIA APRT MOCLDY    77  63  61 N8        29.93R
KENNEDY INTL   MOCLDY    74  67  78 SW6       29.94S
NEWARK/LIBERTY MOCLDY    79  63  57 N6        29.93R
BRNX BOT. GARD   N/A     75  63  64 N6        29.94F
TETERBORO      MOCLDY    77  63  61 CALM      29.93S
$$

NYZ177-179-078>081-100400-
LONG ISLAND NEW YORK

CITY           SKY/WX    TMP DP  RH WIND       PRES   REMARKS
FARMINGDALE    MOCLDY    74  68  81 SW7       29.94F
ISLIP          NOT AVBL
SHIRLEY        MOCLDY    75  69  81 VRB5      29.95S
WESTHAMPTON    MOCLDY    72  69  90 W7        29.97S
MONTAUK POINT    N/A     73  69  87 SW7       29.95F
$$

NYZ052-065-067-100400-
HUDSON VALLEY

CITY           SKY/WX    TMP DP  RH WIND       PRES   REMARKS
WHITE PLAINS   MOCLDY    72  64  76 NW3       29.95S
NEWBURGH       CLOUDY    70  64  83 W8        29.97R
MONTGOMERY     MOCLDY    66  64  93 CALM      29.96R
POUGHKEEPSIE   MOCLDY    71  64  78 CALM      29.94S
ALBANY         PTCLDY    67  63  87 W8        29.96R
$$

NJZ001-105-106-008-010-013-015-019>022-104-100400-
NEW JERSEY

CITY           SKY/WX    TMP DP  RH WIND       PRES   REMARKS
NEWARK/LIBERTY MOCLDY    79  63  57 N6        29.93R
TETERBORO      MOCLDY    77  63  61 CALM      29.93S
CALDWELL       MOCLDY    70  68  93 CALM      29.95F
MORRISTOWN     MOCLDY    72  66  83 CALM      29.95S
SOMERVILLE     CLOUDY    72  65  78 CALM      29.93R
LINDEN         FAIR      80  65  59 N6        29.95R
SUSSEX         MOCLDY    70  66  87 SW3       29.97S
ANDOVER          N/A     67  67 100 CALM      29.98R
TRENTON        CLOUDY    78  69  73 S3        29.94R
MILLVILLE      CLOUDY    76  70  82 SW5       29.97R
ATLANTIC CITY  CLOUDY    74  72  93 S7        29.97R FOG
WRIGHTSTOWN    CLOUDY    74  68  81 S5        29.93R
TOMS RIVER     CLOUDY    73  72  94 CALM      29.96R
BELMAR         CLOUDY    77  64  65 S3        29.95R
$$

PAZ047>061-062-071-100400-
EASTERN PENNSYLVANIA

CITY           SKY/WX    TMP DP  RH WIND       PRES   REMARKS
PHILADELPHIA   CLOUDY    80  69  69 SW14G22   29.96R
ALLENTOWN      CLOUDY    71  63  75 N6        29.98R
SCRANTON       MOCLDY    67  61  81 E3        29.99R
$$

CTZ002-004>006-009-010-012-RIZ004-006-007-MAZ004-011-015-100400-
SOUTHERN NEW ENGLAND
 IN CT

CITY           SKY/WX    TMP DP  RH WIND       PRES   REMARKS
BRADLEY INTL   CLOUDY    70  62  76 W3        29.94S
HARTFORD       CLOUDY    71  68  90 SE5       29.93S
DANBURY        MOCLDY    69  65  86 CALM      29.97R
WTRBRY/OXFORD  MOCLDY    68  64  88 CALM      29.98S
BRIDGEPORT     PTCLDY    75  69  81 SW5       29.93R
MERIDEN        MOCLDY    71  67  87 CALM      29.95R
NEW HAVEN      MOCLDY    76  68  76 CALM      29.94R
CHESTER        FAIR      72  70  94 SW5       29.96S
GROTON         MOCLDY    70  70 100 SW6       29.93F FOG
WILLIMANTIC    CLOUDY    74  66  76 SW6       29.94R

 IN RI

CITY           SKY/WX    TMP DP  RH WIND       PRES   REMARKS
PROVIDENCE     CLOUDY    72  68  87 SW9       29.94F
BLOCK ISLAND   CLOUDY    70  66  88 SW14G21   29.95F
WESTERLY       CLOUDY    72  69  90 SW6       29.95F FOG

 IN MA

CITY           SKY/WX    TMP DP  RH WIND       PRES   REMARKS
BOSTON         CLOUDY    76  64  66 SW9       29.92R
WORCESTER      LGT RAIN  69  63  81 W21G39    29.99R
WESTFIELD      CLOUDY    66  64  93 CALM      29.94R
PROVINCETOWN   MOCLDY    70  66  88 S10       29.94S
NANTUCKET      FOG       69  68  96 S10       29.96S VSB 1/2
$$

ANZ330-335-338-340-345-350-353-355-100400-
COASTAL MARINE OBSERVATIONS


STATION/POSITION TIME  SKY/WX   TEMP    WIND        PRES    VSBY  WAVE
                                AIR SEA DIR/SP/G                  HT/PER
                 (UTC)          (F)     (DEG/KT/KT) (MB)    (MI)  (FT/S)
NY HARB ENTRANCE NOT AVBL
4S FIRE IS       0200               66                N/A           5/ 8
23SW MTP         0300            68 65              1013.8          5/ 8
HUDSON CANYON    0300            72 70  220/ 19/ 29 1014.8          4/ 8
EXECUTION ROCKS  0300            73 66   60/  2/  4   N/A
WESTERN LI SOUND 0300            72     330/  2/  6   N/A           0
CENTRAL LI SOUND 0200            72 71  210/  6/  6   N/A           1/ 3
EASTERN LI SOUND 0200            70 66  250/  8/ 12   N/A
ROBBINS REEF     0200            80     240/  3/  4   N/A
$$


>>>>>>>>>>>>>>>>>>>>>>>>>>>> KEY <<<<<<<<<<<<<<<<<<<<<<<<<<<
>                                                          <
>     SKY/WX - SKY CONDITION/PRESENT WEATHER               <
>     TMP    - TEMPERATURE IN FAHRENHEIT                   <
>     DP     - DEWPOINT IN FAHRENHEIT                      <
>     RH     - RELATIVE HUMIDITY IN PERCENT                <
>     WIND   - DIRECTION AND SPEED IN MPH                  <
>     PRES   - MEAN SEA LEVEL PRESSURE IN INCHES OF HG     <
>     WCI    - WIND CHILL INDEX                            <
>     VSB    - VISIBILITY IN MILES                         <
>     HX     - HEAT INDEX                                  <
>     TC     - TEMPERATURE IN CELSIUS                      <
>     VRB    - VARIABLE WIND DIRECTION                     <
>                                                          <
>>>>>>>>>>>>>>>>>>>>>>>>>>>> KEY <<<<<<<<<<<<<<<<<<<<<<<<<<<




USA.gov is the U.S. government's official web portal to all federal, state and local government web resources and services.